Location: Bullfrog
(37.5121°N, 110.7330°W)
Time: 20:45:29
(UTC-07:00)

Hubble Space Telescope - Pass Details

Date: 30 January 2026
Orbit: 478 x 480 km, 28.5° (Epoch: 9 February)

Event Time Altitude Azimuth Distance (km) Brightness Sun altitude
Rises 19:35:20 0° 252° (WSW) 2,510 5.6 -22.0°
Reaches altitude 10° 19:38:45 10° 219° (SW) 1,631 3.8 -22.7°
Maximum altitude 19:40:10 12° 197° (SSW) 1,520 3.3 -23.0°
Enters shadow 19:41:11 11° 180° (S) 1,576 3.2 -23.2°
